Weather History for Manhattan, KS

Change the Weather History Date:

Monday, September 9, 2013

  Actual Average Record
Temperature  
Mean Temperature 84 °F 71 °F  
Max Temperature 98 °F 84 °F 98 °F (2013)
Min Temperature 70 °F 58 °F 44 °F (1999)
Degree Days  
Heating Degree Days 0 1  
Month to date heating degree days 0 4  
Since 1 July heating degree days 3 7  
Cooling Degree Days 19 7  
Month to date cooling degree days 122 70  
Year to date cooling degree days 1350 1253  
Growing Degree Days 35 (Base 50)    
Moisture  
Dew Point 60 °F    
Average Humidity 47    
Maximum Humidity 68    
Minimum Humidity 26    
Precipitation  
Precipitation 0.00 in 0.11 in 0.92 in (2003)
Month to date precipitation T 1.24  
Year to date precipitation 21.22 25.78  
Sea Level Pressure  
Sea Level Pressure 29.84 in    
Wind  
Wind Speed 11 mph (SSW)    
Max Wind Speed 23 mph    
Max Gust Speed 31 mph    
Visibility 10 miles    
Events      
T = Trace of Precipitation, MM = Missing Value Source: NWS Daily Summary

Daily Weather History Graph

Daily Weather History Graph

Search for Another Location

Airport:

Trip Planner

Search our weather history database for the weather conditions in past years. The results will help you decide how hot, cold, wet, or windy it might be!

Date:

Astronomy

Sep. 09, 2013 Rise Set
Actual Time 7:02 AM CDT 7:44 PM CDT
Civil Twilight 6:35 AM CDT 8:11 PM CDT
Nautical Twilight 6:03 AM CDT 8:43 PM CDT
Astronomical Twilight 5:30 AM CDT 9:15 PM CDT
Moon 11:23 AM CDT (9/9) 10:04 PM CDT (9/9)
Length of Visible Light 13h 35m
Length of Day
12h 41m
Waxing Crescent, 19% of the Moon is Illuminated
Sep 9
Waxing Crescent
Sep 12
First Quarter
Sep 19
Full
Sep 26
Last Quarter
Oct 4
New

Hourly Weather History & Observations

Time (CDT) Temp. Heat Index Dew Point Humidity Pressure Visibility Wind Dir Wind Speed Gust Speed Precip Events Conditions
12:52 AM 81.0 °F 82.2 °F 63.0 °F 54% 29.83 in 10.0 mi SW 10.4 mph - N/A   Clear
1:52 AM 80.1 °F 81.2 °F 62.1 °F 54% 29.83 in 10.0 mi SW 10.4 mph - N/A   Clear
2:52 AM 79.0 °F - 62.1 °F 56% 29.83 in 10.0 mi SW 10.4 mph - N/A   Clear
3:52 AM 75.0 °F - 62.1 °F 64% 29.83 in 10.0 mi SW 6.9 mph - N/A   Clear
4:52 AM 77.0 °F - 61.0 °F 58% 29.83 in 10.0 mi SW 9.2 mph - N/A   Clear
5:52 AM 72.0 °F - 61.0 °F 68% 29.84 in 10.0 mi SW 6.9 mph - N/A   Clear
6:52 AM 72.0 °F - 61.0 °F 68% 29.86 in 10.0 mi SW 3.5 mph - N/A   Clear
7:52 AM 75.0 °F - 61.0 °F 62% 29.86 in 10.0 mi SW 10.4 mph - N/A   Clear
8:52 AM 78.1 °F - 62.1 °F 58% 29.87 in 10.0 mi SSW 10.4 mph - N/A   Clear
9:52 AM 84.0 °F 84.9 °F 63.0 °F 49% 29.87 in 10.0 mi SW 16.1 mph - N/A   Clear
10:52 AM 90.0 °F 91.3 °F 64.0 °F 42% 29.87 in 10.0 mi SW 13.8 mph - N/A   Clear
11:52 AM 91.9 °F 93.3 °F 64.0 °F 39% 29.87 in 10.0 mi SW 10.4 mph 18.4 mph N/A   Clear
12:52 PM 96.1 °F 96.9 °F 62.1 °F 32% 29.85 in 10.0 mi SW 17.3 mph 24.2 mph N/A   Clear
1:52 PM 98.1 °F 98.6 °F 61.0 °F 29% 29.84 in 10.0 mi SSW 13.8 mph - N/A   Clear
2:52 PM 98.1 °F 97.7 °F 59.0 °F 27% 29.83 in 10.0 mi SSW 18.4 mph 31.1 mph N/A   Clear
3:52 PM 97.0 °F 96.5 °F 59.0 °F 28% 29.81 in 10.0 mi South 18.4 mph 28.8 mph N/A   Clear
4:52 PM 96.1 °F 95.6 °F 59.0 °F 29% 29.81 in 10.0 mi SSW 18.4 mph 29.9 mph N/A   Clear
5:52 PM 95.0 °F 93.4 °F 55.9 °F 27% 29.82 in 10.0 mi South 11.5 mph 24.2 mph N/A   Clear
6:52 PM 93.0 °F 91.1 °F 55.0 °F 28% 29.82 in 10.0 mi SSW 9.2 mph - N/A   Clear
7:52 PM 86.0 °F 84.9 °F 57.0 °F 37% 29.83 in 10.0 mi South 6.9 mph - N/A   Clear
8:52 PM 82.9 °F 82.6 °F 57.9 °F 42% 29.85 in 10.0 mi South 6.9 mph - N/A   Clear
9:52 PM 84.0 °F 83.3 °F 57.0 °F 40% 29.86 in 10.0 mi South 11.5 mph - N/A   Clear
10:52 PM 82.9 °F 82.8 °F 59.0 °F 44% 29.87 in 10.0 mi South 10.4 mph - N/A   Clear
11:52 PM 82.0 °F 82.4 °F 60.1 °F 47% 29.88 in 10.0 mi SSW 11.5 mph - N/A   Clear